Theta_e
319 319 318 318 318 318 318 318 318 318 319 320 320 320 321 321 320 312 303 312 317 333 326 308 305 304 303 299 301 302 294 292 295 298 302 309 307 318 326 322 324 328 330 329 330
318 318 317 317 317 318 317 317 318 318 319 319 319 319 320 320 312 306 317 334 335 333 305 303 301 303 299 298 300 298 293 296 302 303 303 306 307 311 320 319 323 327 329 331 330
317 317 316 316 316 317 317 317 317 318 319 319 319 319 320 319 305 311 337 337 334 323 305 303 302 301 295 296 298 295 295 301 303 304 304 305 305 309 316 312 322 323 326 330 332
316 316 315 315 315 316 316 316 317 317 318 318 319 320 320 313 293 310 337 337 334 313 305 302 300 297 299 293 296 293 300 301 304 306 301 303 304 306 310 313 322 330 328 331 328
315 315 314 314 315 316 316 316 316 316 316 317 321 321 313 302 306 315 343 337 319 311 305 301 297 295 295 295 298 296 299 301 303 302 300 303 303 303 305 317 322 329 331 328 327
314 314 314 314 315 315 315 316 315 316 316 318 323 319 308 297 309 320 322 325 317 308 307 303 301 301 298 296 295 298 299 301 301 301 299 300 302 303 307 319 320 321 324 328 328
315 314 314 314 315 315 315 315 314 315 316 320 322 317 309 302 313 314 315 321 316 312 307 308 307 303 300 299 299 300 297 300 302 301 301 301 301 301 306 317 319 321 324 328 328
314 314 314 314 314 315 315 314 314 316 317 322 321 314 301 314 313 309 311 310 311 313 311 311 308 303 298 300 300 297 294 292 300 302 305 302 296 303 306 306 315 322 325 328 328
314 314 313 313 314 314 313 313 315 318 318 321 312 310 307 322 311 312 308 308 310 311 310 315 307 301 302 294 291 292 290 292 297 302 302 299 297 303 306 304 307 318 324 327 328
314 313 312 313 313 313 312 313 315 319 321 320 317 306 310 311 311 312 308 309 308 308 306 305 301 297 295 292 286 290 291 292 294 301 301 297 297 301 305 306 307 308 322 327 326
313 313 312 312 312 312 308 304 301 301 309 309 312 310 316 317 315 310 310 308 307 305 298 301 296 293 295 296 297 296 294 294 298 303 300 296 298 302 303 302 303 302 305 313 325
312 313 312 312 311 311 305 305 303 303 297 306 307 309 313 312 307 311 311 303 301 296 299 299 294 301 302 302 299 298 295 294 299 303 299 298 298 301 302 303 303 305 305 305 319
312 312 312 311 310 307 303 307 306 305 295 303 306 305 306 307 305 308 309 304 299 296 296 295 300 306 304 302 300 296 295 295 295 300 299 298 296 298 305 303 305 306 306 306 306
312 312 311 310 304 301 304 308 305 307 293 302 305 307 306 306 304 310 311 305 299 297 297 297 303 304 301 301 301 294 301 300 299 295 290 297 288 295 299 300 305 307 306 304 308
311 312 311 310 299 301 307 309 305 307 289 308 304 310 306 303 306 307 310 308 299 299 298 296 299 299 298 300 302 298 303 300 300 294 291 293 290 293 298 298 301 309 305 309 312
311 311 310 303 298 304 306 303 304 295 289 304 306 304 301 305 306 306 306 307 307 300 299 298 303 301 300 304 303 305 301 297 294 291 287 291 291 292 296 298 306 310 319 328 330
311 311 306 304 298 302 302 302 293 289 305 302 302 302 301 302 303 303 301 298 296 291 292 299 300 303 304 298 301 299 292 286 286 286 286 294 292 293 302 307 307 309 313 320 321
309 307 303 304 301 302 302 297 288 301 300 306 303 301 299 302 302 302 299 295 299 297 293 292 292 301 305 299 296 295 293 288 283 285 288 294 291 297 307 309 310 311 312 312 319
305 297 300 305 305 302 298 290 294 299 304 303 301 296 296 301 301 301 298 297 300 300 294 292 295 306 306 302 300 296 292 296 291 289 287 289 297 303 305 309 310 310 310 313 315
294 294 298 308 306 301 294 292 297 305 306 304 295 299 294 298 297 296 298 305 305 305 301 299 293 302 306 305 302 296 298 290 288 284 282 289 292 295 300 304 308 307 306 309 319
293 297 306 308 306 297 288 291 299 306 306 301 298 297 297 297 297 296 301 305 307 306 305 300 296 297 301 298 297 298 295 292 290 290 286 284 288 302 300 305 305 306 308 310 311
294 294 307 305 293 292 290 297 301 305 306 305 302 299 298 298 296 297 299 304 307 308 302 301 296 293 297 303 305 300 297 294 288 289 290 288 289 303 303 305 306 305 308 307 308
294 297 306 305 289 289 296 303 306 302 302 302 300 301 300 296 293 299 301 306 307 304 299 299 294 291 294 296 301 298 300 297 295 293 290 288 290 303 307 307 307 307 307 313 320
294 294 299 299 297 294 294 298 300 305 302 302 301 300 298 295 296 296 299 306 307 305 313 305 296 294 291 295 298 296 299 299 294 289 292 293 296 301 302 303 306 307 316 320 321
294 294 298 293 296 294 294 299 298 299 302 302 298 299 296 291 295 294 301 302 307 309 303 297 290 294 296 299 300 298 298 299 295 295 290 295 295 299 300 308 313 317 319 320 321
293 293 296 297 297 295 295 295 300 302 301 300 297 301 299 295 297 295 299 298 298 301 299 300 293 296 295 300 299 296 298 298 298 298 295 296 295 300 310 312 311 312 314 311 314
296 299 296 295 294 293 294 298 302 301 302 303 302 299 299 301 302 300 300 300 298 295 295 296 294 293 289 296 295 290 295 296 296 298 298 293 299 302 305 306 306 306 308 308 309
Wind_Speed
15 15 15 16 16 16 17 18 18 18 17 17 17 16 15 16 16 2 7 13 8 5 2 5 4 4 2 3 3 4 4 6 5 3 9 20 10 2 2 9 3 4 5 10 11
15 16 17 17 18 17 18 19 19 19 17 17 16 15 14 13 3 6 11 9 9 7 2 2 6 7 3 3 4 5 4 8 8 6 9 9 5 3 5 9 2 3 6 11 12
16 17 18 18 19 18 18 19 19 19 17 17 15 14 12 8 5 7 4 9 7 5 1 2 1 1 3 1 4 2 6 11 12 12 8 7 11 2 7 3 10 17 14 11 7
16 17 18 19 19 18 19 19 20 20 19 17 14 12 10 2 1 4 6 6 4 3 1 2 2 1 3 3 1 2 8 9 18 17 4 8 4 8 6 8 15 19 17 13 11
16 17 18 20 20 19 18 19 19 19 18 15 12 9 2 3 10 5 7 6 3 3 3 2 1 1 2 4 7 5 7 7 12 12 9 5 6 6 7 3 7 16 14 15 12
15 17 19 20 20 20 19 19 18 18 16 14 10 3 1 4 6 7 8 6 4 3 3 5 5 4 6 5 2 3 6 10 9 8 5 3 7 4 11 7 7 16 14 14 16
15 16 19 21 21 21 20 19 20 18 15 12 3 3 1 15 2 6 5 5 5 4 3 6 5 5 3 9 2 6 8 11 10 6 9 4 11 9 11 9 10 12 13 15 17
16 17 20 22 22 22 22 22 22 19 11 6 2 1 8 7 4 6 9 8 6 7 6 8 5 4 1 3 10 7 4 6 10 4 14 9 16 16 13 8 14 14 14 12 17
17 18 21 23 23 24 24 25 22 11 5 4 1 1 11 12 3 7 4 4 4 5 3 3 4 0 7 4 7 7 4 7 12 7 7 5 11 15 12 5 7 18 17 20 17
18 20 21 23 24 24 27 22 6 0 3 4 4 4 6 3 3 2 2 4 2 3 5 3 5 3 4 5 4 6 4 5 8 9 8 5 9 9 9 4 8 4 16 17 19
19 20 22 24 25 23 15 5 7 5 1 6 4 5 9 5 3 1 3 1 2 2 3 4 3 6 12 8 9 5 5 7 8 6 6 2 5 9 9 4 8 6 8 14 19
19 21 24 26 27 25 1 3 2 6 10 9 14 12 18 7 7 4 4 4 2 3 4 6 7 12 9 9 6 9 8 7 7 9 5 8 7 7 6 6 6 10 11 9 14
17 20 24 28 32 4 4 4 7 4 2 10 6 6 7 9 7 9 9 4 3 3 6 5 12 2 5 14 6 4 2 5 5 7 5 6 9 9 20 5 9 11 13 9 13
16 19 22 31 5 6 6 11 9 3 5 8 4 6 3 4 5 8 8 6 2 7 6 8 10 5 7 5 5 2 6 4 7 7 5 6 8 8 9 12 14 17 14 8 3
16 17 19 16 5 4 6 13 10 6 3 3 3 3 3 7 1 2 5 2 5 6 3 10 10 9 8 7 3 8 4 2 1 4 5 7 4 10 8 9 12 10 3 5 7
17 17 18 3 3 9 10 11 5 5 2 3 4 4 4 3 3 3 3 2 3 4 2 8 7 4 7 5 1 1 6 8 6 3 5 5 3 9 7 7 8 12 10 10 9
18 20 13 3 6 4 8 5 6 2 6 2 4 5 5 5 4 6 6 5 5 2 4 7 6 6 6 2 7 9 8 5 7 6 6 5 2 9 14 11 14 13 10 3 7
19 24 5 7 6 3 5 6 2 5 4 4 4 5 6 6 5 8 5 2 5 4 1 3 8 6 7 8 9 4 8 7 4 3 7 6 2 8 6 7 8 8 16 13 10
18 4 4 7 8 3 5 4 5 3 5 7 8 4 6 9 3 5 8 3 5 10 7 2 5 6 8 4 9 4 2 7 5 0 4 3 7 8 11 14 15 12 12 10 9
4 5 6 3 8 5 6 4 4 3 5 6 6 6 7 8 11 9 3 5 6 4 2 3 3 2 6 6 5 3 3 3 4 0 2 5 5 4 7 8 6 8 7 6 4
3 4 5 7 5 6 3 6 4 3 4 5 4 4 4 4 3 7 7 2 6 7 8 4 4 7 4 3 2 9 7 4 3 6 6 2 7 7 4 1 2 3 3 6 3
0 1 4 4 4 0 2 5 3 2 5 2 2 3 3 5 4 6 6 4 7 3 3 4 2 2 6 6 5 5 4 5 5 10 3 5 8 5 3 2 5 2 6 4 8
1 4 3 7 3 2 6 4 4 3 3 3 5 5 5 5 5 4 6 7 7 4 3 2 3 5 11 9 9 5 5 2 4 1 2 3 8 2 3 6 5 6 9 6 5
1 1 4 4 2 3 1 3 5 3 3 4 1 3 5 6 3 5 7 9 11 8 4 6 3 6 6 5 2 6 13 6 5 1 5 6 8 11 11 10 11 8 7 8 9
2 5 4 3 5 6 2 2 3 5 3 3 3 2 1 1 6 6 6 6 7 9 6 5 1 3 5 6 4 4 10 15 8 6 5 12 11 8 5 5 6 6 8 9 10
1 1 5 2 2 6 4 3 1 2 1 3 3 3 1 4 3 2 3 4 2 6 5 7 3 3 3 4 7 6 6 9 12 15 7 10 10 7 5 8 13 10 11 13 12
3 4 5 4 4 4 3 1 2 3 1 6 2 5 7 3 4 3 2 2 4 1 1 2 2 4 4 5 5 4 6 4 7 6 7 7 10 4 8 12 9 8 10 12 13
Wind_Direction
4 1 357 349 341 334 332 331 328 328 325 322 322 321 321 319 310 188 248 218 186 200 182 292 326 337 164 268 208 101 75 270 252 360 274 309 336 65 17 113 288 217 126 145 168
1 358 352 346 337 330 329 328 326 326 323 323 321 319 319 325 311 256 251 231 203 155 223 277 318 6 338 230 315 109 127 247 202 216 249 277 289 30 170 129 28 83 84 149 152
358 355 348 340 333 329 326 324 325 324 323 324 322 319 317 317 328 257 301 182 179 162 218 289 360 69 273 219 208 220 206 253 267 251 233 260 300 27 150 204 188 166 167 167 151
353 351 343 334 328 326 323 323 324 322 322 323 321 318 315 271 287 281 167 157 155 181 172 249 76 176 265 299 184 244 250 245 274 273 289 251 249 307 194 238 166 173 173 167 154
348 347 337 328 325 324 320 318 317 315 318 321 317 324 299 4 251 248 167 147 150 168 181 196 229 160 285 326 350 194 271 293 270 278 239 279 287 255 276 181 110 170 170 169 166
344 340 332 325 324 322 320 316 312 308 315 316 308 329 317 295 243 183 166 150 216 203 198 170 218 190 277 264 172 271 276 271 276 271 267 284 285 52 291 153 154 166 180 182 174
338 334 329 325 323 321 318 314 307 305 307 304 312 270 326 238 274 106 176 226 180 200 218 212 222 149 270 318 316 300 343 320 316 318 289 76 310 282 259 166 182 185 206 189 188
335 331 328 324 322 320 319 314 304 300 295 281 174 265 250 257 276 240 199 272 257 221 217 267 221 184 192 313 356 353 37 12 289 321 272 118 269 268 275 165 191 206 206 203 205
333 329 327 323 322 322 320 311 305 294 220 145 146 82 270 304 259 237 177 239 300 279 285 310 52 341 2 54 3 352 272 295 309 296 285 143 240 261 264 265 248 202 201 210 214
333 329 326 322 325 325 322 308 283 95 175 194 258 330 279 321 217 164 218 187 247 282 353 348 44 33 4 75 226 243 285 293 275 299 12 12 276 302 297 261 258 222 211 208 204
332 328 327 324 325 326 339 1 9 356 115 209 211 264 287 313 294 346 189 284 44 53 191 287 74 239 243 209 224 238 255 266 266 284 17 283 271 284 276 257 303 257 238 202 205
330 331 330 328 322 324 240 19 184 220 306 242 243 247 263 281 313 285 86 132 117 264 357 358 267 246 246 252 224 252 256 283 291 322 4 326 299 273 270 275 272 278 279 210 216
330 333 332 327 319 341 283 265 321 82 329 292 215 198 221 148 224 244 141 169 165 252 253 192 251 301 246 272 276 308 271 295 293 323 355 357 328 335 310 323 304 286 258 241 183
330 333 336 331 24 331 297 326 336 80 49 279 225 254 152 173 268 204 172 144 178 225 240 239 270 248 312 261 202 268 269 329 332 27 310 59 296 300 286 305 297 289 260 254 171
329 332 337 336 290 319 289 329 318 56 58 175 191 192 128 148 300 279 132 113 207 253 56 260 307 317 311 265 138 230 259 329 310 355 18 357 40 272 303 316 303 292 160 146 177
321 325 339 353 290 245 319 307 47 46 272 220 140 176 102 236 276 59 124 111 215 256 256 246 270 225 237 329 200 43 36 21 39 49 27 251 140 290 329 280 308 310 92 123 126
317 315 314 270 242 346 331 32 48 130 341 161 207 156 196 221 214 157 182 177 170 71 311 319 271 270 185 282 340 62 56 352 356 9 222 306 31 256 301 27 58 14 338 302 122
319 311 257 213 238 345 17 53 97 270 320 4 4 133 194 188 242 180 137 200 256 121 360 256 327 353 319 173 186 183 144 150 240 254 273 322 296 283 289 305 25 22 29 25 335
319 326 278 257 203 116 72 77 208 292 342 359 349 15 351 349 256 138 190 225 223 163 180 226 272 318 38 360 128 270 218 183 137 103 35 272 311 327 355 11 7 1 40 1 30
342 339 271 252 133 74 75 222 254 2 10 16 44 37 38 348 12 352 91 320 357 45 196 248 299 336 314 18 45 66 250 10 10 236 291 301 300 241 339 334 17 355 6 7 15
13 353 265 128 81 52 154 229 288 51 80 60 9 28 9 13 344 347 338 352 16 1 64 10 81 294 39 25 56 353 339 354 124 141 173 238 274 226 241 209 21 15 341 23 335
74 26 271 74 58 133 193 214 318 2 16 52 64 9 49 7 357 29 354 16 5 13 35 350 129 326 260 271 192 176 71 78 72 303 256 156 265 253 255 149 279 286 323 342 291
210 253 330 87 169 259 289 300 261 272 79 53 9 37 52 18 4 43 349 341 26 63 122 313 14 7 340 351 7 20 25 47 226 87 308 85 273 76 321 297 270 263 18 31 2
31 101 325 50 202 162 265 281 344 340 129 124 199 53 42 17 23 299 359 359 346 18 28 63 119 156 203 235 244 323 329 355 106 39 291 248 274 310 330 325 339 11 40 9 15
170 243 201 213 268 186 181 272 344 3 23 77 29 161 115 318 338 354 7 356 23 357 12 76 168 201 237 284 334 326 320 322 338 240 233 282 285 281 314 81 20 38 44 29 17
182 79 352 275 275 138 176 262 172 335 101 326 157 291 97 110 128 28 13 29 145 340 31 353 298 344 299 321 358 335 298 294 292 301 296 282 278 250 122 76 47 29 29 24 5
279 314 105 284 355 85 214 208 265 347 323 77 124 112 91 96 167 197 205 249 253 190 272 25 70 39 264 358 1 342 267 306 326 349 305 324 324 76 69 59 40 18 19 22 7